[[{"header":{"parameterUnit":"m.s-1","parameterCategory":1,"la1":30.2991,"la2":30.254,"lo1":-89.0895,"lo2":-89.0444,"dy":0.0017,"dx":0.0017,"nx":28,"ny":28,"refTime":"2025-11-10T09:00:00:Z","depth":0,"parameterNumber":2,"parameterNumberName":"U-component_of_WINDS"},"data":[0,0,0,0,0,0,0,0,0,0,0,0,0,0,0,0,0,0,0,0,0,0,0,0,0,0,0,0,0,0,0,0,0,0,0,0,0,0,0,0,0,0,0,0,0,0,0,0,0,0,0,0,0,0,0,0,0,0,3.1653,3.1654,0,3.1724,3.1724,3.1725,3.1698,3.1697,3.1695,3.1693,3.1762,3.1766,3.1769,0,0,0,0,0,0,0,0,0,0,0,0,0,3.1489,3.1492,3.1653,3.1654,3.1655,3.1724,3.1725,3.1725,3.1698,3.1696,3.1695,3.1693,3.1761,3.1765,3.1769,0,0,0,0,0,0,0,0,0,0,0,0,0,3.156,3.1493,3.1653,3.165,3.165,3.1723,3.1725,3.1726,3.1699,3.1696,3.1694,3.1692,3.176,3.1765,3.177,3.1849,0,0,3.1785,3.1787,0,0,0,0,0,0,0,0,3.1556,3.1566,3.1649,3.165,3.1651,3.17,3.1692,3.1767,3.1699,3.168,3.1693,3.1691,3.1743,3.1749,3.1768,3.1853,3.1856,3.1786,3.1789,3.1791,3.1792,0,0,0,0,0,0,0,3.1551,3.1563,3.1681,3.1651,3.1651,3.1643,3.165,3.1706,3.1724,3.1682,3.168,3.1689,3.1743,3.1763,3.1769,3.1857,3.1785,3.179,3.1793,3.1795,3.2004,3.2006,0,0,0,0,0,0,3.1546,3.1559,3.1679,3.1683,3.1596,3.1648,3.1656,3.1686,3.1724,3.1727,3.1691,3.1687,3.1756,3.1764,3.1772,3.1863,3.1791,3.1795,3.1798,3.2001,3.2004,3.2007,0,0,0,0,0,0,3.1543,3.1557,3.1676,3.162,3.1635,3.1653,3.1687,3.1689,3.1709,3.1731,3.1733,3.1708,3.1754,3.1765,3.1829,3.1865,3.1798,3.1802,3.1998,3.2002,3.2006,3.2048,0,0,0,0,0,0,3.1538,3.1556,3.1589,3.1621,3.1638,3.1734,3.169,3.1692,3.1718,3.1714,3.1748,3.1751,3.1753,3.1822,3.1834,3.1871,3.1806,3.1995,3.2,3.2004,3.2044,3.2053,3.2061,0,0,0,0,0,3.1533,3.1598,3.159,3.1605,3.1679,3.1736,3.1745,3.1748,3.1721,3.1752,3.1765,3.175,3.186,3.1829,3.1842,3.1881,3.1993,3.1999,3.2004,3.204,3.2051,3.2061,0,0,0,0,0,0,3.1569,3.1603,3.1594,3.1673,3.1702,3.1732,3.1771,3.1761,3.1797,3.1792,3.1792,3.1799,3.1865,3.188,3.1845,3.1957,3.1922,3.1931,3.1944,3.1956,3.1964,3.1958,3.181,0,0,0,0,0,3.1587,3.1632,3.1658,3.1725,3.174,3.1753,3.1778,3.1777,3.1807,3.1819,3.1837,3.1865,3.1905,3.1932,3.197,3.2047,3.2051,3.208,3.2088,3.2095,3.2102,3.2138,3.215,3.2026,3.2026,3.2026,0,0,3.1623,3.1647,3.1675,3.1733,3.1755,3.1799,3.1764,3.1813,3.1845,3.1826,3.1887,3.1901,3.1932,3.2001,3.2033,3.2016,3.2137,3.2103,3.2108,3.2111,3.2145,3.2157,3.2167,3.203,3.2029,3.2028,0,0,3.171,3.1735,3.179,3.1813,3.1847,3.1854,3.1868,3.1899,3.1907,3.1968,3.1953,3.199,3.2062,3.2082,3.2103,3.2194,3.2179,3.2207,3.2251,3.2286,3.2296,3.2304,3.2332,3.2343,3.2214,3.2214,3.2214,0,3.175,3.1818,3.182,3.187,3.1893,3.1878,3.1932,3.1954,3.1998,3.2014,3.1995,3.208,3.21,3.2172,3.2193,3.2212,3.2224,3.2201,3.2295,3.2303,3.2311,3.2338,3.2349,3.2216,3.2216,3.2216,3.2216,0,3.1862,3.1909,3.195,3.1992,3.2021,3.2073,3.208,3.2109,3.2105,3.2113,3.2173,3.2197,3.2237,3.2255,3.2252,3.2325,3.2312,3.2294,3.2258,3.2325,3.235,3.2361,3.222,3.2219,3.2219,3.2218,0,0,3.1975,3.2016,3.2031,3.2047,3.2082,3.2117,3.2167,3.2207,3.2229,3.226,3.2298,3.2357,3.2339,3.2361,3.236,3.2392,3.2456,3.2369,3.2369,3.2381,3.2532,3.2543,3.2555,3.2448,3.245,3.2452,3.2528,0,3.2062,3.2149,3.2151,3.2229,3.227,3.2254,3.2296,3.2321,3.233,3.2363,3.2373,3.2413,3.2388,3.2401,3.2432,3.2442,3.2486,3.2437,3.248,3.2482,3.2469,3.2569,3.2582,3.2653,3.2538,3.254,3.2541,0,3.2175,3.2207,3.229,3.2314,3.2331,3.2369,3.2403,3.2438,3.2463,3.2467,3.2491,3.2484,3.2531,3.2496,3.2558,3.2524,3.2542,3.255,3.2552,3.2553,3.2513,3.2569,3.2676,3.2685,3.2558,3.2556,3.2555,0,3.2242,3.2308,3.2364,3.2379,3.2411,3.2437,3.2451,3.2475,3.2497,3.2527,3.254,3.2576,3.2594,3.262,3.2621,3.2597,3.2682,3.2649,3.2684,3.2683,3.27,3.2698,3.2807,3.2718,3.2718,3.2718,3.2718,0,3.2337,3.2387,3.2394,3.2428,3.2482,3.2483,3.2536,3.2547,3.2568,3.2602,3.2592,3.2624,3.2625,3.2657,3.2659,3.2707,3.2717,3.2719,3.2718,3.2718,3.2717,3.2727,3.2721,3.2721,3.272,3.272,3.2719,0,3.2421,3.2429,3.2488,3.2512,3.2519,3.2557,3.2576,3.2607,3.2615,3.2657,3.2668,3.2678,3.2715,3.272,3.2763,3.2764,3.2821,3.2817,3.2812,3.281,3.2843,3.2838,3.296,3.2973,3.2879,3.288,3.2881,0,3.2479,3.2516,3.2543,3.2565,3.258,3.2617,3.2638,3.264,3.2663,3.2693,3.2719,3.2755,3.2783,3.2842,3.2852,3.2884,3.2879,3.2919,3.2883,3.288,3.2874,3.287,3.2872,3.2924,3.2926,3.2926,3.2927,0,3.2579,3.258,3.2612,3.2645,3.2671,3.2698,3.2722,3.274,3.2744,3.277,3.2807,3.2829,3.2872,3.2906,3.2937,3.2949,3.2937,3.2939,3.2947,3.2946,3.2939,3.2939,3.2826,3.2935,3.2934,3.2934,3.2933,3.2933,3.2648,3.2679,3.2702,3.2737,3.2755,3.2777,3.2806,3.2816,3.2847,3.2882,3.2881,3.292,3.2941,3.2981,3.2996,3.3025,3.3011,3.3026,3.3029,3.3031,3.3032,3.2938,3.3031,3.3031,3.3031,3.3031,3.303,0,3.2744,3.2757,3.279,3.2823,3.285,3.2838,3.2863,3.2885,3.2921,3.2941,3.2969,3.3009,3.3041,3.3054,3.3084,3.3105,3.31,3.3113,3.3109,3.3111,3.3045,3.3032,3.3116,3.3116,3.3116,3.3116,3.3116,3.3116,3.2797,3.2846,3.2849,3.2906,3.2919,3.2957,3.2972,3.2991,3.3007,3.3052,3.3079,3.3087,3.3103,3.3134,3.3162,3.3165,3.3174,3.3188,3.3188,3.3125,3.3117,3.3108,3.3096,3.3192,3.3192,3.3252,3.3252,3.3253]},{"header":{"parameterUnit":"m.s-1","parameterCategory":1,"la1":30.2991,"la2":30.254,"lo1":-89.0895,"lo2":-89.0444,"dy":0.0017,"dx":0.0017,"nx":28,"ny":28,"refTime":"2025-11-10T09:00:00:Z","depth":0,"parameterNumber":3,"parameterNumberName":"V-component_of_WINDS"},"data":[0,0,0,0,0,0,0,0,0,0,0,0,0,0,0,0,0,0,0,0,0,0,0,0,0,0,0,0,0,0,0,0,0,0,0,0,0,0,0,0,0,0,0,0,0,0,0,0,0,0,0,0,0,0,0,0,0,0,5.2551,5.2552,0,5.2681,5.2683,5.2684,5.2631,5.2627,5.2624,5.2621,5.2751,5.2757,5.2763,0,0,0,0,0,0,0,0,0,0,0,0,0,5.2248,5.2254,5.2551,5.2552,5.2554,5.2681,5.2683,5.2685,5.2631,5.2627,5.2624,5.262,5.2749,5.2756,5.2764,0,0,0,0,0,0,0,0,0,0,0,0,0,5.2379,5.2256,5.255,5.2543,5.2543,5.2681,5.2683,5.2685,5.2632,5.2627,5.2623,5.2618,5.2747,5.2756,5.2765,5.2917,0,0,5.2794,5.2798,0,0,0,0,0,0,0,0,5.2372,5.239,5.2542,5.2544,5.2544,5.2635,5.2624,5.2763,5.2633,5.2598,5.2621,5.2616,5.2716,5.2728,5.2762,5.2923,5.2928,5.2795,5.2801,5.2805,5.2808,0,0,0,0,0,0,0,5.2363,5.2384,5.2602,5.2544,5.2546,5.253,5.2544,5.265,5.2681,5.2601,5.2597,5.2614,5.2716,5.2753,5.2765,5.293,5.2795,5.2803,5.2809,5.2813,5.3215,5.322,0,0,0,0,0,0,5.2354,5.2377,5.2598,5.2606,5.2445,5.254,5.2555,5.2611,5.268,5.2686,5.2617,5.2611,5.2739,5.2754,5.2769,5.2947,5.2805,5.2814,5.2819,5.321,5.3216,5.3221,0,0,0,0,0,0,5.2348,5.2374,5.2593,5.2491,5.2517,5.255,5.2613,5.2616,5.2653,5.2693,5.2697,5.2651,5.2736,5.2756,5.2879,5.2951,5.2818,5.2827,5.3204,5.3212,5.3219,5.3307,0,0,0,0,0,0,5.2339,5.2373,5.2433,5.2493,5.2523,5.2703,5.2617,5.2621,5.267,5.2662,5.2725,5.2731,5.2734,5.2865,5.2889,5.2962,5.2834,5.3198,5.3208,5.3216,5.3297,5.3316,5.3332,0,0,0,0,0,5.2329,5.2452,5.2436,5.2463,5.2599,5.2708,5.2725,5.2727,5.2676,5.2735,5.2759,5.2729,5.294,5.2878,5.2904,5.2981,5.3193,5.3205,5.3216,5.3289,5.3312,5.3332,0,0,0,0,0,0,5.24,5.246,5.2443,5.259,5.2644,5.2698,5.2773,5.2752,5.2821,5.2811,5.2809,5.2824,5.295,5.2978,5.2909,5.3128,5.3058,5.3075,5.3106,5.3128,5.3145,5.3134,5.2842,0,0,0,0,0,5.2433,5.2518,5.2565,5.269,5.2718,5.2741,5.2789,5.2786,5.2841,5.2863,5.2897,5.2951,5.3028,5.308,5.3154,5.3301,5.3311,5.3366,5.3384,5.3398,5.3412,5.3486,5.351,5.3258,5.3258,5.3258,0,0,5.2502,5.2545,5.2599,5.2706,5.2747,5.2832,5.2761,5.2856,5.2917,5.2877,5.2995,5.3022,5.3081,5.3216,5.3277,5.3243,5.3483,5.3412,5.3423,5.3429,5.35,5.3524,5.3545,5.3266,5.3264,5.3263,0,0,5.267,5.2713,5.2819,5.2862,5.2925,5.2939,5.2964,5.3022,5.3037,5.3156,5.3126,5.3199,5.3334,5.3376,5.3415,5.3594,5.3567,5.3618,5.3708,5.3781,5.3801,5.3818,5.3878,5.39,5.3632,5.3633,5.3633,0,5.2747,5.2876,5.2877,5.2972,5.3018,5.2985,5.3091,5.3132,5.3216,5.3247,5.3208,5.3374,5.3412,5.3553,5.3597,5.3631,5.3657,5.3611,5.3798,5.3816,5.3832,5.3889,5.3912,5.3638,5.3638,5.3637,5.3636,0,5.2965,5.3054,5.3132,5.3214,5.3269,5.3369,5.3382,5.3437,5.3428,5.3444,5.3562,5.3606,5.3686,5.372,5.3713,5.3859,5.3836,5.3798,5.3727,5.3862,5.3915,5.3937,5.3646,5.3644,5.3643,5.3641,0,0,5.3183,5.3261,5.3289,5.3324,5.339,5.3458,5.3554,5.3633,5.3678,5.3736,5.3814,5.3928,5.3891,5.3936,5.3932,5.3997,5.413,5.395,5.3951,5.3979,5.4289,5.4315,5.4341,5.4113,5.4117,5.412,5.4282,0,5.3353,5.3524,5.3525,5.3682,5.3761,5.3729,5.3813,5.386,5.3878,5.3946,5.3964,5.4043,5.3992,5.4017,5.408,5.4101,5.4192,5.4089,5.4182,5.4185,5.4166,5.4369,5.4398,5.4549,5.4304,5.4307,5.431,0,5.3575,5.3639,5.3804,5.3853,5.3887,5.3962,5.4031,5.4098,5.415,5.4157,5.4205,5.419,5.4285,5.4212,5.434,5.427,5.4308,5.4323,5.4329,5.4336,5.4254,5.4378,5.4598,5.462,5.4344,5.4341,5.4338,0,5.3713,5.3841,5.3954,5.3985,5.4047,5.4099,5.4127,5.4175,5.422,5.428,5.4309,5.4379,5.4417,5.4471,5.4474,5.4421,5.4601,5.453,5.4607,5.4607,5.4645,5.4642,5.4871,5.4674,5.4674,5.4673,5.4673,0,5.3902,5.4002,5.4016,5.4086,5.4195,5.4195,5.4303,5.4326,5.4367,5.4438,5.4415,5.4481,5.4483,5.455,5.4553,5.4656,5.4674,5.468,5.4679,5.4681,5.468,5.4704,5.4693,5.4679,5.4678,5.4677,5.4676,0,5.4074,5.4088,5.4208,5.4256,5.427,5.4349,5.4388,5.4452,5.4466,5.4556,5.4577,5.4598,5.4675,5.4684,5.4774,5.4776,5.4898,5.4888,5.4881,5.4879,5.4954,5.4945,5.5204,5.5236,5.5021,5.5023,5.5025,0,5.4192,5.4269,5.4324,5.4369,5.44,5.4475,5.452,5.4521,5.4569,5.4631,5.4687,5.4762,5.4822,5.4946,5.4967,5.5035,5.5024,5.511,5.5034,5.5031,5.5021,5.5015,5.5021,5.5124,5.5126,5.5128,5.513,0,5.4399,5.4401,5.4469,5.4538,5.4593,5.4647,5.4698,5.4736,5.4742,5.4797,5.4876,5.4922,5.5013,5.5086,5.5151,5.5177,5.5153,5.5153,5.5174,5.5176,5.5167,5.5169,5.4918,5.5147,5.5146,5.5144,5.5143,5.5143,5.4546,5.461,5.4658,5.4732,5.477,5.4817,5.4879,5.4899,5.4965,5.5039,5.5035,5.5121,5.5165,5.5251,5.5281,5.5346,5.5317,5.5348,5.5356,5.5362,5.5368,5.5159,5.5358,5.5358,5.5357,5.5357,5.5357,0,5.4749,5.4777,5.4846,5.4916,5.4974,5.4947,5.5001,5.505,5.5126,5.517,5.5228,5.5316,5.5386,5.5412,5.5479,5.5526,5.5516,5.5543,5.5538,5.5544,5.5392,5.5366,5.5549,5.5549,5.5549,5.5549,5.5549,5.5549,5.4861,5.4967,5.4974,5.5097,5.5124,5.5208,5.524,5.5281,5.5316,5.5415,5.5473,5.549,5.5525,5.5594,5.5655,5.5661,5.5685,5.5716,5.5717,5.5575,5.5555,5.5536,5.5511,5.5722,5.5723,5.5862,5.5864,5.5865]}]]